[[{"header":{"parameterUnit":"m.s-1","parameterCategory":1,"la1":30.2991,"la2":30.254,"lo1":-89.0895,"lo2":-89.0444,"dy":0.0017,"dx":0.0017,"nx":28,"ny":28,"refTime":"2023-10-06T21:00:00:Z","depth":0,"parameterNumber":2,"parameterNumberName":"U-component_of_WINDS"},"data":[0,0,0,0,0,0,0,0,0,0,0,0,0,0,0,0,0,0,0,0,0,0,0,0,0,0,0,0,0,0,0,0,0,0,0,0,0,0,0,0,0,0,0,0,0,0,0,0,0,0,0,0,0,0,0,0,0,0,-0.4307,-0.4307,0,-0.4302,-0.4302,-0.4302,-0.4283,-0.4282,-0.4282,-0.4282,-0.4276,-0.4277,-0.4277,0,0,0,0,0,0,0,0,0,0,0,0,0,-0.43,-0.43,-0.4307,-0.4307,-0.4307,-0.4302,-0.4302,-0.4302,-0.4283,-0.4282,-0.4282,-0.4281,-0.4276,-0.4277,-0.4277,0,0,0,0,0,0,0,0,0,0,0,0,0,-0.43,-0.43,-0.4307,-0.4297,-0.4296,-0.4302,-0.4302,-0.4302,-0.4283,-0.4282,-0.4282,-0.4281,-0.4276,-0.4276,-0.4277,-0.4293,0,0,-0.4278,-0.4278,0,0,0,0,0,0,0,0,-0.43,-0.43,-0.4299,-0.4298,-0.4297,-0.4293,-0.4297,-0.4299,-0.4283,-0.4288,-0.4282,-0.4281,-0.4282,-0.4282,-0.4283,-0.4292,-0.4292,-0.4278,-0.4278,-0.4279,-0.4279,0,0,0,0,0,0,0,-0.43,-0.43,-0.4305,-0.4299,-0.4297,-0.4292,-0.4292,-0.4298,-0.4289,-0.4288,-0.4286,-0.4286,-0.4282,-0.4282,-0.4282,-0.4292,-0.4278,-0.4278,-0.4279,-0.4279,-0.4313,-0.4314,0,0,0,0,0,0,-0.4301,-0.43,-0.4305,-0.4305,-0.4297,-0.4293,-0.4292,-0.4295,-0.4289,-0.4287,-0.4286,-0.4285,-0.4282,-0.4282,-0.4282,-0.43,-0.4279,-0.4279,-0.4279,-0.4313,-0.4313,-0.4314,0,0,0,0,0,0,-0.4301,-0.4302,-0.4306,-0.4302,-0.4302,-0.4294,-0.4297,-0.4295,-0.4295,-0.4288,-0.4286,-0.4289,-0.4281,-0.4281,-0.429,-0.4299,-0.4279,-0.4279,-0.4312,-0.4313,-0.4314,-0.4335,0,0,0,0,0,0,-0.4301,-0.4302,-0.4308,-0.4303,-0.4303,-0.4314,-0.4297,-0.4295,-0.4296,-0.4294,-0.429,-0.4288,-0.4281,-0.4289,-0.429,-0.4299,-0.428,-0.4311,-0.4312,-0.4313,-0.4334,-0.4337,-0.434,0,0,0,0,0,-0.4301,-0.4315,-0.4309,-0.4309,-0.431,-0.4315,-0.4315,-0.4306,-0.4297,-0.4303,-0.4298,-0.4288,-0.4298,-0.429,-0.4291,-0.4301,-0.431,-0.4312,-0.4313,-0.4332,-0.4336,-0.4339,0,0,0,0,0,0,-0.4322,-0.4314,-0.4307,-0.4319,-0.4318,-0.4311,-0.4319,-0.431,-0.4311,-0.4309,-0.4298,-0.4297,-0.4307,-0.4305,-0.4297,-0.4315,-0.4302,-0.4304,-0.4317,-0.432,-0.4323,-0.4324,-0.428,0,0,0,0,0,-0.4328,-0.4332,-0.4325,-0.4336,-0.4336,-0.4327,-0.4329,-0.4322,-0.432,-0.4319,-0.4315,-0.4313,-0.4316,-0.4318,-0.432,-0.4333,-0.4331,-0.434,-0.4342,-0.4345,-0.4347,-0.4353,-0.4356,-0.4319,-0.4319,-0.4319,0,0,-0.434,-0.4336,-0.434,-0.434,-0.4338,-0.4343,-0.4327,-0.4333,-0.4336,-0.432,-0.4328,-0.4324,-0.4322,-0.4332,-0.4337,-0.4331,-0.4357,-0.4347,-0.4349,-0.4349,-0.4355,-0.4358,-0.4362,-0.432,-0.432,-0.432,0,0,-0.4366,-0.4363,-0.4372,-0.437,-0.4367,-0.4361,-0.4364,-0.4358,-0.4355,-0.4363,-0.4351,-0.4354,-0.4359,-0.4357,-0.4357,-0.438,-0.4372,-0.4381,-0.4397,-0.4403,-0.4406,-0.4409,-0.4417,-0.442,-0.4383,-0.4383,-0.4383,0,-0.4382,-0.4388,-0.4378,-0.4384,-0.4385,-0.437,-0.4379,-0.4378,-0.4376,-0.4376,-0.4369,-0.4374,-0.4371,-0.4381,-0.4386,-0.4387,-0.4389,-0.4382,-0.4406,-0.4409,-0.4411,-0.4419,-0.4422,-0.4384,-0.4384,-0.4384,-0.4384,0,-0.4408,-0.4413,-0.442,-0.4418,-0.4419,-0.4427,-0.4418,-0.442,-0.4413,-0.4407,-0.4415,-0.441,-0.4411,-0.4413,-0.4406,-0.4421,-0.4417,-0.4408,-0.4396,-0.4416,-0.4423,-0.4426,-0.4386,-0.4385,-0.4385,-0.4385,0,0,-0.4448,-0.4439,-0.4442,-0.4441,-0.4436,-0.4439,-0.4445,-0.4446,-0.4448,-0.4446,-0.4451,-0.4455,-0.4446,-0.4446,-0.4439,-0.4444,-0.4462,-0.4434,-0.4434,-0.444,-0.4479,-0.4486,-0.449,-0.4456,-0.4457,-0.4457,-0.4479,0,-0.4472,-0.4483,-0.4473,-0.4486,-0.449,-0.4475,-0.4481,-0.4478,-0.4473,-0.4475,-0.447,-0.4472,-0.4461,-0.446,-0.4465,-0.4459,-0.447,-0.4457,-0.4461,-0.4461,-0.4462,-0.4493,-0.4501,-0.4522,-0.4482,-0.4482,-0.4483,0,-0.4502,-0.4502,-0.4515,-0.4508,-0.4509,-0.4514,-0.4513,-0.4516,-0.4512,-0.4508,-0.4507,-0.4498,-0.4503,-0.449,-0.4497,-0.4489,-0.4489,-0.4487,-0.4487,-0.4488,-0.4474,-0.4495,-0.4529,-0.4532,-0.4487,-0.4487,-0.4486,0,-0.453,-0.4532,-0.454,-0.4539,-0.4532,-0.4536,-0.4533,-0.4528,-0.4529,-0.4528,-0.4528,-0.4528,-0.4528,-0.4527,-0.4518,-0.4509,-0.4526,-0.4513,-0.4523,-0.4523,-0.4528,-0.4527,-0.4562,-0.4527,-0.4527,-0.4527,-0.4527,0,-0.4558,-0.4566,-0.4552,-0.4557,-0.4566,-0.4554,-0.4563,-0.4559,-0.4555,-0.4558,-0.4546,-0.4549,-0.4537,-0.4539,-0.4531,-0.4538,-0.4538,-0.4535,-0.4533,-0.4536,-0.4537,-0.4537,-0.4535,-0.4528,-0.4528,-0.4528,-0.4528,0,-0.4591,-0.4582,-0.4589,-0.4581,-0.4579,-0.4586,-0.4579,-0.4583,-0.4576,-0.4581,-0.4581,-0.4571,-0.4573,-0.4563,-0.4563,-0.4558,-0.4569,-0.4564,-0.457,-0.4569,-0.458,-0.4579,-0.4616,-0.462,-0.4582,-0.4583,-0.4583,0,-0.461,-0.4616,-0.4608,-0.4609,-0.4607,-0.4609,-0.461,-0.4598,-0.4599,-0.4594,-0.4599,-0.4599,-0.4599,-0.4602,-0.4595,-0.4595,-0.459,-0.4603,-0.459,-0.4593,-0.459,-0.459,-0.4591,-0.4606,-0.4606,-0.4607,-0.4607,0,-0.4644,-0.4639,-0.464,-0.4639,-0.464,-0.4638,-0.4636,-0.4638,-0.4625,-0.4627,-0.4628,-0.4628,-0.4627,-0.4628,-0.4626,-0.4623,-0.4613,-0.4611,-0.4614,-0.4617,-0.4621,-0.4619,-0.4578,-0.4611,-0.461,-0.461,-0.461,-0.461,-0.4671,-0.4675,-0.467,-0.4671,-0.4668,-0.4666,-0.467,-0.4663,-0.4664,-0.4663,-0.4656,-0.4658,-0.4654,-0.465,-0.4647,-0.4649,-0.4642,-0.4646,-0.4647,-0.4648,-0.465,-0.462,-0.4648,-0.4648,-0.4648,-0.4648,-0.4648,0,-0.4705,-0.47,-0.4702,-0.4699,-0.4699,-0.469,-0.4686,-0.4688,-0.469,-0.4686,-0.4686,-0.4687,-0.4688,-0.468,-0.4679,-0.4682,-0.4677,-0.4682,-0.4682,-0.4681,-0.4656,-0.4654,-0.4685,-0.4685,-0.4685,-0.4685,-0.4685,-0.4685,-0.4722,-0.4729,-0.4724,-0.4729,-0.4724,-0.4727,-0.4726,-0.4724,-0.472,-0.4722,-0.4722,-0.4717,-0.4712,-0.471,-0.4709,-0.4707,-0.4707,-0.4714,-0.471,-0.4686,-0.4683,-0.4679,-0.4678,-0.4714,-0.4714,-0.4735,-0.4735,-0.4736]},{"header":{"parameterUnit":"m.s-1","parameterCategory":1,"la1":30.2991,"la2":30.254,"lo1":-89.0895,"lo2":-89.0444,"dy":0.0017,"dx":0.0017,"nx":28,"ny":28,"refTime":"2023-10-06T21:00:00:Z","depth":0,"parameterNumber":3,"parameterNumberName":"V-component_of_WINDS"},"data":[0,0,0,0,0,0,0,0,0,0,0,0,0,0,0,0,0,0,0,0,0,0,0,0,0,0,0,0,0,0,0,0,0,0,0,0,0,0,0,0,0,0,0,0,0,0,0,0,0,0,0,0,0,0,0,0,0,0,-6.3528,-6.3529,0,-6.3605,-6.3606,-6.3607,-6.3577,-6.3575,-6.3574,-6.3572,-6.3645,-6.3648,-6.3652,0,0,0,0,0,0,0,0,0,0,0,0,0,-6.3353,-6.3356,-6.3528,-6.3529,-6.353,-6.3605,-6.3606,-6.3607,-6.3577,-6.3575,-6.3573,-6.3571,-6.3644,-6.3648,-6.3652,0,0,0,0,0,0,0,0,0,0,0,0,0,-6.3429,-6.3357,-6.3528,-6.3525,-6.3525,-6.3605,-6.3606,-6.3607,-6.3578,-6.3575,-6.3573,-6.357,-6.3642,-6.3647,-6.3653,-6.3739,0,0,-6.3669,-6.3671,0,0,0,0,0,0,0,0,-6.3425,-6.3435,-6.3524,-6.3525,-6.3526,-6.3579,-6.3571,-6.3651,-6.3578,-6.3558,-6.3572,-6.3569,-6.3625,-6.3631,-6.3651,-6.3742,-6.3745,-6.367,-6.3673,-6.3675,-6.3677,0,0,0,0,0,0,0,-6.3419,-6.3432,-6.3558,-6.3526,-6.3526,-6.3518,-6.3526,-6.3586,-6.3605,-6.3559,-6.3557,-6.3567,-6.3624,-6.3646,-6.3653,-6.3746,-6.3669,-6.3674,-6.3678,-6.368,-6.3914,-6.3917,0,0,0,0,0,0,-6.3414,-6.3428,-6.3556,-6.3561,-6.3468,-6.3523,-6.3532,-6.3564,-6.3604,-6.3608,-6.3569,-6.3565,-6.3638,-6.3647,-6.3655,-6.3761,-6.3675,-6.368,-6.3683,-6.3911,-6.3914,-6.3918,0,0,0,0,0,0,-6.3411,-6.3426,-6.3553,-6.3494,-6.3509,-6.3529,-6.3566,-6.3567,-6.3589,-6.3612,-6.3614,-6.3588,-6.3637,-6.3648,-6.3719,-6.3762,-6.3683,-6.3687,-6.3907,-6.3912,-6.3916,-6.397,0,0,0,0,0,0,-6.3406,-6.3425,-6.3459,-6.3495,-6.3513,-6.3617,-6.3568,-6.3571,-6.3599,-6.3595,-6.363,-6.3634,-6.3635,-6.3711,-6.3724,-6.3768,-6.3692,-6.3903,-6.3909,-6.3915,-6.3965,-6.3976,-6.3986,0,0,0,0,0,-6.34,-6.3469,-6.3461,-6.3476,-6.3555,-6.3619,-6.3629,-6.3632,-6.3603,-6.3636,-6.3651,-6.3632,-6.3755,-6.3719,-6.3733,-6.378,-6.3901,-6.3908,-6.3914,-6.396,-6.3974,-6.3986,0,0,0,0,0,0,-6.3435,-6.3474,-6.3465,-6.3548,-6.3581,-6.3614,-6.3657,-6.3646,-6.3686,-6.368,-6.3679,-6.3688,-6.3762,-6.3777,-6.3736,-6.3866,-6.3824,-6.3834,-6.3854,-6.3867,-6.3877,-6.3872,-6.3696,0,0,0,0,0,-6.3453,-6.3503,-6.3534,-6.3604,-6.3622,-6.3637,-6.3664,-6.3664,-6.3697,-6.371,-6.373,-6.3762,-6.3808,-6.3838,-6.3881,-6.3967,-6.3975,-6.4006,-6.4016,-6.4025,-6.4034,-6.4082,-6.4097,-6.394,-6.394,-6.394,0,0,-6.3489,-6.3517,-6.3548,-6.3612,-6.3638,-6.3689,-6.3648,-6.3704,-6.3742,-6.3718,-6.3788,-6.3804,-6.3839,-6.3919,-6.3954,-6.3934,-6.4079,-6.4033,-6.404,-6.4044,-6.4091,-6.4106,-6.4119,-6.3944,-6.3944,-6.3943,0,0,-6.3583,-6.3609,-6.3672,-6.3699,-6.3739,-6.3749,-6.3764,-6.38,-6.381,-6.3881,-6.3865,-6.3909,-6.3988,-6.4015,-6.4038,-6.4145,-6.413,-6.4159,-6.4214,-6.4261,-6.4274,-6.4285,-6.4324,-6.4339,-6.4167,-6.4167,-6.4167,0,-6.3623,-6.3702,-6.3705,-6.3763,-6.3792,-6.3775,-6.3839,-6.3865,-6.3916,-6.3936,-6.3912,-6.4013,-6.4035,-6.4122,-6.4148,-6.4167,-6.4185,-6.4155,-6.4272,-6.4283,-6.4293,-6.4331,-6.4346,-6.4171,-6.417,-6.417,-6.417,0,-6.375,-6.3805,-6.3851,-6.3905,-6.3938,-6.3999,-6.401,-6.4044,-6.4041,-6.4053,-6.4125,-6.4152,-6.4202,-6.4222,-6.4217,-6.4309,-6.4295,-6.4272,-6.4229,-6.4312,-6.4347,-6.4362,-6.4176,-6.4174,-6.4173,-6.4172,0,0,-6.3867,-6.3924,-6.3941,-6.3966,-6.401,-6.4052,-6.4112,-6.4163,-6.4193,-6.4228,-6.4279,-6.4347,-6.4327,-6.4354,-6.4353,-6.4394,-6.4479,-6.4366,-6.4367,-6.4388,-6.4583,-6.4602,-6.4619,-6.4469,-6.4472,-6.4474,-6.4581,0,-6.3966,-6.4074,-6.408,-6.4177,-6.4229,-6.4214,-6.4266,-6.4299,-6.4312,-6.4356,-6.437,-6.442,-6.4388,-6.4405,-6.4445,-6.4461,-6.4519,-6.4453,-6.4516,-6.4519,-6.451,-6.4637,-6.4656,-6.4756,-6.4595,-6.4597,-6.4599,0,-6.4096,-6.414,-6.4243,-6.4283,-6.4304,-6.4352,-6.44,-6.4443,-6.4479,-6.4486,-6.4518,-6.4511,-6.4572,-6.4527,-6.4611,-6.4566,-6.4592,-6.4604,-6.4608,-6.4615,-6.4565,-6.4649,-6.4787,-6.4803,-6.462,-6.4619,-6.4617,0,-6.4174,-6.4258,-6.4332,-6.4353,-6.44,-6.4434,-6.4455,-6.4489,-6.452,-6.4561,-6.4582,-6.4629,-6.4655,-6.4691,-6.4697,-6.4664,-6.4782,-6.4737,-6.479,-6.479,-6.4816,-6.4815,-6.4963,-6.483,-6.483,-6.483,-6.483,0,-6.4284,-6.4349,-6.4368,-6.4414,-6.4485,-6.4491,-6.4561,-6.4579,-6.461,-6.4658,-6.4647,-6.4692,-6.4697,-6.4743,-6.4748,-6.4818,-6.4829,-6.4836,-6.4837,-6.4838,-6.4838,-6.4856,-6.485,-6.4834,-6.4833,-6.4832,-6.4832,0,-6.4384,-6.4399,-6.4479,-6.4518,-6.453,-6.4581,-6.4614,-6.4657,-6.467,-6.4731,-6.4745,-6.4765,-6.4819,-6.4829,-6.4892,-6.4895,-6.4979,-6.4972,-6.4968,-6.4968,-6.5021,-6.5016,-6.5187,-6.521,-6.5061,-6.5063,-6.5064,0,-6.4454,-6.4504,-6.455,-6.4583,-6.4606,-6.4658,-6.4691,-6.4698,-6.4732,-6.4779,-6.4817,-6.487,-6.4914,-6.5001,-6.502,-6.5068,-6.5063,-6.5119,-6.507,-6.5071,-6.5066,-6.5064,-6.507,-6.5129,-6.5131,-6.5132,-6.5133,0,-6.4578,-6.4584,-6.4633,-6.4686,-6.4726,-6.4766,-6.4805,-6.4832,-6.4844,-6.4882,-6.494,-6.4973,-6.504,-6.5093,-6.5142,-6.5161,-6.515,-6.5149,-6.5164,-6.5166,-6.5163,-6.5168,-6.4996,-6.5145,-6.5144,-6.5143,-6.5142,-6.5142,-6.4667,-6.4712,-6.4752,-6.4807,-6.4837,-6.4874,-6.4918,-6.4938,-6.4986,-6.5042,-6.5042,-6.5105,-6.5141,-6.5206,-6.5229,-6.5277,-6.5259,-6.528,-6.5286,-6.5292,-6.5298,-6.5154,-6.5286,-6.5286,-6.5285,-6.5285,-6.5285,0,-6.4792,-6.4818,-6.4869,-6.4925,-6.4969,-6.4956,-6.4998,-6.5035,-6.5092,-6.5127,-6.5171,-6.5237,-6.529,-6.5314,-6.5365,-6.5399,-6.5396,-6.5413,-6.5411,-6.5416,-6.531,-6.5293,-6.5415,-6.5415,-6.5415,-6.5415,-6.5415,-6.5415,-6.4863,-6.4939,-6.495,-6.5041,-6.5065,-6.5129,-6.5155,-6.5189,-6.5218,-6.5293,-6.5338,-6.5354,-6.5385,-6.5439,-6.5486,-6.5492,-6.5512,-6.5533,-6.5536,-6.5437,-6.5423,-6.5411,-6.5395,-6.5537,-6.5537,-6.5638,-6.5639,-6.564]}]]